"Time","Temp","Dewpoint","Humidity","Pressure","Direction","Speed","Gust","Precip","PrecipRate"
"00:04:57","55.9","52.7","89","29.85","278","0","0","0.00","0.00"
"00:09:57","55.8","52.6","89","29.85","278","0","0","0.00","0.00"
"00:14:56","55.6","52.4","89","29.85","277","0","0","0.00","0.00"
"00:19:58","55.5","52.2","88.8","29.85","354","0.4","3.5","0.00","0.00"
"00:24:56","55.6","51.8","87","29.85","344","0.4","2.3","0.00","0.00"
"00:29:58","56.5","51.2","82.6","29.85","238","0.3","2.3","0.00","0.00"
"00:34:56","57.5","51.1","79.3","29.85","238","0.1","1.2","0.00","0.00"
"00:39:59","58.6","50.9","75.4","29.85","312","0.9","5","0.00","0.00"
"00:44:57","59.6","50.9","72.9","29.86","238","0.4","4","0.00","0.00"
"00:49:58","60.5","50.7","70","29.86","253","1.6","6","0.00","0.00"
"00:54:57","61.1","51.2","70.1","29.86","254","0.7","4","0.00","0.00"
"00:59:58","60.9","51.2","70.5","29.86","254","0.5","3.5","0.00","0.00"
"01:04:56","60.4","51.1","71.4","29.86","254","0.3","1.2","0.00","0.00"
"01:09:58","60","51.4","73.1","29.86","254","0.1","1.2","0.00","0.00"
"01:14:57","59.7","50.9","72.9","29.86","254","0","1.2","0.00","0.00"
"01:19:59","59.4","50.9","73.3","29.86","254","0","0","0.00","0.00"
"01:24:57","59.2","51","74.2","29.86","254","0","0","0.00","0.00"
"01:29:59","58.8","51.1","75.6","29.86","254","0","0","0.00","0.00"
"01:34:57","58.4","51","76.4","29.86","254","0","0","0.00","0.00"
"01:39:56","58","50.9","77.3","29.86","254","0","0","0.00","0.00"
"01:44:58","57.6","50.5","77.4","29.87","254","0","0","0.00","0.00"
"01:49:56","57.3","50.3","77.3","29.87","254","0","0","0.00","0.00"
"01:54:58","57.1","50.7","79.2","29.87","254","0","0","0.00","0.00"
"01:59:56","56.9","50.8","80","29.87","254","0","0","0.00","0.00"
"02:04:57","56.7","50.5","79.7","29.87","254","0","0","0.00","0.00"
"02:09:59","56.5","50.8","81.2","29.87","254","0","0","0.00","0.00"
"02:14:58","56.3","50.5","80.9","29.87","254","0","0","0.00","0.00"
"02:19:56","56.1","50","80","29.86","254","0","0","0.00","0.00"
"02:24:58","56","49.9","80","29.86","254","0","0","0.00","0.00"
"02:29:56","55.9","50.2","81.1","29.86","254","0","0","0.00","0.00"
"02:34:58","55.7","50","81","29.85","254","0","0","0.00","0.00"
"02:39:57","55.6","50.1","81.9","29.85","254","0","0","0.00","0.00"
"02:44:59","55.3","49.9","82","29.86","254","0","0","0.00","0.00"
"02:49:57","55.1","49.9","82.7","29.86","254","0","0","0.00","0.00"
"02:54:59","54.9","49.7","82.7","29.86","254","0","0","0.00","0.00"
"02:59:57","54.6","49.5","83.1","29.86","254","0","0","0.00","0.00"
"03:04:59","54.4","49.7","84","29.86","254","0","0","0.00","0.00"
"03:09:58","54.3","49.8","84.9","29.86","254","0","0","0.00","0.00"
"03:14:56","54.1","49.7","85","29.86","254","0","0","0.00","0.00"
"03:19:58","53.9","49.7","85.9","29.85","254","0","0","0.00","0.00"
"03:24:56","53.7","49.6","86","29.85","254","0","0","0.00","0.00"
"03:29:58","53.6","49.7","86.8","29.85","254","0","0","0.00","0.00"
"03:34:56","53.4","49.6","87","29.85","254","0","0","0.00","0.00"
"03:39:59","53.2","49.5","87.3","29.85","254","0","0","0.00","0.00"
"03:44:57","53.2","49.7","88","29.85","254","0","0","0.00","0.00"
"03:49:59","53.2","49.7","88.1","29.85","254","0","0","0.00","0.00"
"03:54:58","53.1","49.7","88.4","29.85","254","0","0","0.00","0.00"
"03:59:59","53","49.7","88.8","29.86","254","0","0","0.00","0.00"
"04:04:57","52.7","49.5","89","29.86","254","0","0","0.00","0.00"
"04:09:59","52.5","49.4","89","29.86","254","0","0","0.00","0.00"
"04:14:59","52.3","49.3","89.3","29.86","254","0","0","0.00","0.00"
"04:19:57","52.1","49.3","90","29.86","254","0","0","0.00","0.00"
"04:24:59","51.9","49.1","90","29.86","254","0","0","0.00","0.00"
"04:29:57","51.8","49.1","90.4","29.87","254","0","0","0.00","0.00"
"04:34:59","51.6","49","90.7","29.87","254","0","0","0.00","0.00"
"04:39:58","51.4","48.9","91","29.87","254","0","0","0.00","0.00"
"04:44:56","51.3","48.8","91","29.87","254","0","0","0.00","0.00"
"04:49:58","51.1","48.9","91.8","29.87","254","0","0","0.00","0.00"
"04:54:59","51","48.7","91.4","29.87","254","0","0","0.00","0.00"
"04:59:58","50.9","48.5","91.4","29.87","254","0","0","0.00","0.00"
"05:04:59","50.7","48.5","92","29.87","254","0","0","0.00","0.00"
"05:09:57","50.6","48.4","92","29.87","254","0","0","0.00","0.00"
"05:14:56","50.5","48.3","92","29.87","254","0","0","0.00","0.00"
"05:19:58","50.4","48.5","92.9","29.87","254","0","0","0.00","0.00"
"05:24:56","50.2","48.1","92.1","29.87","254","0","0","0.00","0.00"
"05:29:58","50","48","92.4","29.87","254","0","0","0.00","0.00"
"05:34:57","49.9","48","93","29.87","254","0","0","0.00","0.00"
"05:39:56","49.8","47.9","93","29.87","254","0","0","0.00","0.00"
"05:44:58","49.8","48.1","93.8","29.87","254","0","0","0.00","0.00"
"05:49:57","49.8","48","93.9","29.87","254","0","0","0.00","0.00"
"05:54:59","49.6","47.7","93","29.87","254","0","0","0.00","0.00"
"05:59:57","49.4","47.5","93","29.87","254","0","0","0.00","0.00"
"06:04:59","49.2","47.3","93","29.87","254","0","0","0.00","0.00"
"06:09:58","49.1","47.2","93.2","29.87","254","0","0","0.00","0.00"
"06:14:57","49","47.3","94","29.87","254","0","0","0.00","0.00"
"06:19:59","48.9","47.2","94","29.87","121","0","0","0.00","0.00"
"06:24:57","48.9","47.2","94","29.87","121","0","0","0.00","0.00"
"06:29:59","49","47.5","94.6","29.88","121","0","0","0.00","0.00"
"06:34:57","49.2","47.8","95","29.88","121","0","0","0.00","0.00"
"06:39:59","49.4","48","95","29.88","121","0","0","0.00","0.00"
"06:44:57","49.5","48.1","95","29.89","121","0","0","0.00","0.00"
"06:49:58","49.5","48.1","95","29.89","121","0","0","0.00","0.00"
"06:54:56","49.5","48.1","95","29.89","121","0","0","0.00","0.00"
"06:59:58","49.6","48.4","95.5","29.89","121","0","0","0.00","0.00"
"07:04:59","50","48.9","96","29.89","121","0","0","0.00","0.00"
"07:09:58","50.5","49.4","96","29.89","121","0","0","0.00","0.00"
"07:14:57","51","49.9","96","29.89","121","0","0","0.00","0.00"
"07:19:58","51.6","50.5","96.2","29.89","121","0","0","0.00","0.00"
"07:24:56","52.3","51.5","97","29.89","121","0","0","0.00","0.00"
"07:29:57","53","52.1","96.7","29.90","121","0","0","0.00","0.00"
"07:34:59","53.6","52.5","96","29.90","105","0","0","0.00","0.00"
"07:39:58","54.4","53.3","96","29.90","105","0","0","0.00","0.00"
"07:44:59","55.2","53.8","95.1","29.90","105","0","0","0.00","0.00"
"07:49:57","55.9","54.3","94.4","29.90","105","0","0","0.00","0.00"
"07:54:58","56.8","54.9","93.4","29.90","55","0","0","0.00","0.00"
"07:59:56","57.8","55.6","92.5","29.90","223","0.1","1","0.00","0.00"
"08:04:58","58.9","55.9","89.4","29.90","223","0","1.2","0.00","0.00"
"08:09:56","60.3","56.2","86.2","29.90","202","1.2","3.5","0.00","0.00"
"08:14:58","61.8","55.2","79","29.90","196","2","6","0.00","0.00"
"08:19:56","63.3","54.9","74.3","29.90","203","2.2","5.8","0.00","0.00"
"08:24:57","64.5","54.9","71.1","29.90","215","2.7","5","0.00","0.00"
"08:29:59","65.6","55.1","69","29.90","240","2","4.6","0.00","0.00"
"08:34:57","66.5","55.7","68.2","29.90","199","2.3","4","0.00","0.00"
"08:39:59","67.3","55.4","65.6","29.90","202","2.2","4","0.00","0.00"
"08:44:57","67.9","54.8","62.9","29.90","215","2.6","5","0.00","0.00"
"08:49:58","68.5","55.1","62.4","29.90","215","2.4","5","0.00","0.00"
"08:54:59","68.9","53.9","58.8","29.90","220","3.3","7","0.00","0.00"
"08:59:57","69.3","53.9","58","29.90","202","3.2","7","0.00","0.00"
"09:04:58","69.6","54","57.7","29.90","222","2.8","5","0.00","0.00"
"09:09:56","70","53.8","56.6","29.90","254","2.4","5","0.00","0.00"
"09:14:59","70.3","54.1","56.5","29.90","235","2.8","6","0.00","0.00"
"09:19:55","70.6","53.7","55.2","29.90","213","2.8","7","0.00","0.00"
"09:24:57","70.9","53.6","54.4","29.90","206","2.9","6.9","0.00","0.00"
"09:29:58","71.1","53.5","53.8","29.91","235","2.6","5","0.00","0.00"
"09:34:56","71.4","53.8","53.9","29.91","200","3.3","9.2","0.00","0.00"
"09:39:58","71.5","53.4","52.9","29.91","198","4.1","9.2","0.00","0.00"
"09:44:59","71.7","53.6","52.8","29.91","201","3.2","8.1","0.00","0.00"
"09:49:57","72","54.2","53.8","29.91","227","3.5","8.1","0.00","0.00"
"09:54:58","72.3","54.8","54.2","29.91","198","3.2","8","0.00","0.00"
"09:59:56","72.6","53.5","51.2","29.91","199","4.8","11","0.00","0.00"
"10:04:57","72.7","53.8","51.4","29.90","198","3.9","11.5","0.00","0.00"
"10:09:59","73","52.7","49.2","29.90","207","3.8","13","0.00","0.00"
"10:14:57","73.1","51.8","47.2","29.90","209","3.8","12.7","0.00","0.00"
"10:19:58","73.5","52.6","48","29.90","209","3.9","11","0.00","0.00"
"10:24:59","73.8","51.7","46","29.90","231","3.5","11.5","0.00","0.00"
"10:29:57","74","52.1","46.3","29.90","229","3.6","10","0.00","0.00"
"10:34:59","74.4","53","47.3","29.90","217","3.3","7","0.00","0.00"
"10:39:57","74.6","50.9","43.4","29.90","218","2.7","6","0.00","0.00"
"10:44:58","74.9","52.7","46","29.90","222","3.1","6","0.00","0.00"
"10:49:56","75.1","52","44.7","29.90","216","4.5","7","0.00","0.00"
"10:54:57","75.1","50.9","42.8","29.90","201","3.1","7","0.00","0.00"
"10:59:58","75.2","52.7","45.5","29.90","228","1.3","5","0.00","0.00"
"11:04:59","75.6","52.7","44.9","29.90","227","4.2","9.2","0.00","0.00"
"11:09:58","75.5","53.2","45.8","29.90","211","4","11.5","0.00","0.00"
"11:14:56","75.1","52.5","45.3","29.90","209","3.3","13","0.00","0.00"
"11:19:39","75.3","52.2","44.5","29.90","232","4.4","12.7","0.00","0.00"
"11:24:56","75.5","52","44","29.90","238","3.8","10.4","0.00","0.00"
"11:29:57","75.9","54.5","47.6","29.90","215","2.8","6","0.00","0.00"
"11:34:59","76.5","54.9","47.2","29.89","209","4","11.5","0.00","0.00"
"11:39:58","76.7","56.2","49.2","29.89","220","3.7","11.5","0.00","0.00"
"11:44:59","76.7","54.3","46","29.89","236","4.8","11","0.00","0.00"
"11:49:57","76.6","54.6","46.7","29.89","231","4.1","11.5","0.00","0.00"
"11:54:58","76.7","53.8","45.2","29.89","239","4.6","11.5","0.00","0.00"
"11:59:59","76.8","55.1","47.1","29.89","220","4.9","12","0.00","0.00"
"12:04:57","77","55","46.6","29.88","198","4.4","10.4","0.00","0.00"
"12:09:58","77.2","56.4","48.7","29.88","211","4.7","11.5","0.00","0.00"
"12:14:56","77.5","54.4","45","29.88","217","3.6","9.2","0.00","0.00"
"12:19:58","77.6","56.1","47.5","29.88","222","4","9.2","0.00","0.00"
"12:24:59","77.6","54.5","44.9","29.88","224","4.1","10.4","0.00","0.00"
"12:29:57","77.1","54.3","45.2","29.88","242","3.6","11.5","0.00","0.00"
"12:34:58","77.6","57.1","49.3","29.87","208","4.2","11.5","0.00","0.00"
"12:39:57","77.8","54.9","45.3","29.87","224","4.6","11.5","0.00","0.00"
"12:44:58","77.4","54.9","45.8","29.87","231","3.9","12","0.00","0.00"
"12:49:56","77.6","53.2","42.9","29.87","265","4.3","12","0.00","0.00"
"12:54:57","78.2","55.5","45.7","29.87","235","5.3","13","0.00","0.00"
"12:59:58","78.6","55","44.3","29.87","228","5","13","0.00","0.00"
"13:04:57","78.8","54.1","42.5","29.86","247","5.1","14","0.00","0.00"
"13:09:57","78.8","54.6","43.3","29.86","223","5.2","13","0.00","0.00"
"13:14:57","78.9","55.3","44.2","29.86","213","6.8","14","0.00","0.00"
"13:19:56","79.2","54.8","43.1","29.85","236","5.9","14","0.00","0.00"
"13:24:58","79.2","53.8","41.5","29.85","259","4.4","13.8","0.00","0.00"
"13:29:57","79.4","55.2","43.4","29.85","235","5.4","11.5","0.00","0.00"
"13:34:56","79.8","53.5","40.2","29.85","280","3.4","10.4","0.00","0.00"
"13:39:56","80.3","55.5","42.6","29.85","252","4.2","10.4","0.00","0.00"
"13:44:59","80.5","54.9","41.3","29.85","227","5.7","15","0.00","0.00"
"13:49:58","80.1","55","42.2","29.85","257","3.9","12","0.00","0.00"
"13:54:57","79.9","53.8","40.6","29.85","217","3.5","9","0.00","0.00"
"13:59:56","80.1","55.5","42.9","29.85","238","3.7","10","0.00","0.00"
"14:04:58","80.2","52.6","38.4","29.84","292","4.4","12","0.00","0.00"
"14:09:58","80.2","54.7","41.5","29.84","18","3.9","9.2","0.00","0.00"
"14:14:58","80.8","53.4","38.8","29.84","248","4.4","19","0.00","0.00"
"14:19:57","81","51.9","36.6","29.83","260","6","19.6","0.00","0.00"
"14:24:56","81.2","53.9","39.2","29.83","311","4","11.5","0.00","0.00"
"14:29:59","81.6","53.2","37.6","29.83","249","4","9.2","0.00","0.00"
"14:34:59","81.9","54","38.3","29.83","255","4.5","14","0.00","0.00"
"14:39:59","81.9","52","35.6","29.83","279","4.8","13.8","0.00","0.00"
"14:44:58","81.8","52.2","36","29.83","276","4.4","12","0.00","0.00"
"14:49:56","82.1","52.5","36","29.83","270","4.4","11.5","0.00","0.00"
"14:54:59","82.1","53.1","36.8","29.83","228","4","9.2","0.00","0.00"
"14:59:58","81.9","51.6","35.1","29.83","260","6.6","15","0.00","0.00"
"15:04:57","81.6","51.7","35.4","29.83","279","5.2","15","0.00","0.00"
"15:09:57","81.4","50.9","34.7","29.83","286","3.6","10.4","0.00","0.00"
"15:14:56","81.4","51","35","29.83","300","4.2","11.5","0.00","0.00"
"15:19:59","81.6","51.7","35.6","29.82","238","5","10.4","0.00","0.00"
"15:24:58","81.9","52.1","35.8","29.82","253","5.6","14","0.00","0.00"
"15:29:57","82.4","53","36.3","29.82","238","5.4","13.8","0.00","0.00"
"15:34:56","82.6","50.4","32.8","29.82","307","6.6","16","0.00","0.00"
"15:39:56","82.5","50.6","33.1","29.82","286","5.3","15","0.00","0.00"
"15:44:59","82.2","50.7","33.6","29.82","257","5.7","14","0.00","0.00"
"15:49:59","81.8","49.9","33","29.82","283","6.2","17.3","0.00","0.00"
